Weather History for Springfield, VT

Change the Weather History Date:

Thursday, April 25, 2013

  Actual Average Record
Temperature  
Mean Temperature 44 °F 48 °F  
Max Temperature 57 °F 61 °F 73 °F (2008)
Min Temperature 30 °F 36 °F 24 °F (2003)
Degree Days  
Heating Degree Days 21 17  
Month to date heating degree days 569 547  
Since 1 July heating degree days 6451 7027  
Cooling Degree Days 0 0  
Month to date cooling degree days 0 0  
Year to date cooling degree days 0 0  
Moisture  
Dew Point 29 °F    
Average Humidity 52    
Maximum Humidity 83    
Minimum Humidity 21    
Precipitation  
Precipitation T in 0.10 in 0.30 in (2002)
Month to date precipitation 1.82 3.10  
Year to date precipitation 6.97 12.01  
Sea Level Pressure  
Sea Level Pressure 30.10 in    
Wind  
Wind Speed 7 mph (WNW)    
Max Wind Speed 25 mph    
Max Gust Speed 33 mph    
Visibility 10 miles    
Events      
T = Trace of Precipitation, MM = Missing Value Source: NWS Daily Summary

Daily Weather History Graph

Daily Weather History Graph

Search for Another Location

Airport:

Trip Planner

Search our weather history database for the weather conditions in past years. The results will help you decide how hot, cold, wet, or windy it might be!

Date:

Astronomy

Apr. 25, 2013 Rise Set
Actual Time 5:51 AM EDT 7:45 PM EDT
Civil Twilight 5:20 AM EDT 8:15 PM EDT
Nautical Twilight 4:43 AM EDT 8:53 PM EDT
Astronomical Twilight 4:03 AM EDT 9:34 PM EDT
Moon 7:55 PM EDT (4/25) 5:32 AM EDT (4/25)
Length of Visible Light 14h 54m
Length of Day
13h 53m
Full, 100% of the Moon is Illuminated
Apr 25
Full
Apr 25
Full
May 2
Last Quarter
May 9
New
May 18
First Quarter

Hourly Weather History & Observations

Time (EDT) Temp. Windchill Dew Point Humidity Pressure Visibility Wind Dir Wind Speed Gust Speed Precip Events Conditions
12:54 AM 55.0 °F - 46.9 °F 74% 29.74 in 10.0 mi Variable 4.6 mph - N/A   Partly Cloudy
1:54 AM 54.0 °F - 48.9 °F 83% 29.80 in 10.0 mi Calm Calm - 0.00 in   Overcast
2:54 AM 53.1 °F - 41.0 °F 64% 29.84 in 10.0 mi WSW 17.3 mph 26.5 mph 0.00 in   Overcast
4:54 AM 45.0 °F 37.9 °F 30.9 °F 58% 29.96 in 10.0 mi West 16.1 mph 21.9 mph N/A   Partly Cloudy
5:54 AM 45.0 °F 41.8 °F 30.9 °F 58% 30.00 in 10.0 mi WSW 5.8 mph 19.6 mph N/A   Mostly Cloudy
6:54 AM 44.1 °F 38.6 °F 30.0 °F 58% 30.04 in 10.0 mi West 10.4 mph 18.4 mph N/A   Mostly Cloudy
7:54 AM 45.0 °F 39.7 °F 28.9 °F 53% 30.07 in 10.0 mi WNW 10.4 mph 23.0 mph N/A   Mostly Cloudy
8:54 AM 45.0 °F 40.6 °F 28.9 °F 53% 30.09 in 10.0 mi NW 8.1 mph 19.6 mph N/A   Mostly Cloudy
9:54 AM 46.9 °F - 28.9 °F 50% 30.12 in 10.0 mi NW 15.0 mph 21.9 mph N/A   Scattered Clouds
10:54 AM 48.9 °F - 30.0 °F 48% 30.14 in 10.0 mi Variable 3.5 mph - N/A   Overcast
11:54 AM 50.0 °F - 27.0 °F 41% 30.16 in 10.0 mi WNW 9.2 mph 18.4 mph N/A   Partly Cloudy
1:54 PM 54.0 °F - 24.1 °F 31% 30.16 in 10.0 mi WNW 10.4 mph 18.4 mph N/A   Clear
2:54 PM 54.0 °F - 24.1 °F 31% 30.15 in 10.0 mi West 10.4 mph 18.4 mph N/A   Clear
3:54 PM 55.9 °F - 23.0 °F 28% 30.15 in 10.0 mi West 16.1 mph 20.7 mph N/A   Clear
4:54 PM 55.9 °F - 19.0 °F 24% 30.16 in 10.0 mi Variable 3.5 mph - N/A   Clear
5:54 PM 57.0 °F - 18.0 °F 22% 30.17 in 10.0 mi Variable 6.9 mph - N/A   Clear
7:54 PM 51.1 °F - 19.9 °F 29% 30.22 in 10.0 mi Calm Calm - N/A   Clear
8:54 PM 44.1 °F - 23.0 °F 43% 30.26 in 10.0 mi Calm Calm - N/A   Clear
9:54 PM 39.9 °F - 28.9 °F 65% 30.29 in 10.0 mi Calm Calm - N/A   Clear
10:54 PM 37.0 °F - 27.0 °F 67% 30.30 in 10.0 mi Calm Calm - N/A   Clear
11:54 PM 34.0 °F - 26.1 °F 73% 30.32 in 10.0 mi Calm Calm - N/A   Clear